OBJECT H, 67000

Orbit data source: Space-Track

You're viewing an Uncataloged Satellite

Recently launched and/or uncataloged satellites may have evolving metadata. Metadata may include but not limited to: Owner, Maufacturer, Bus, Motor, and Mission.

OBJECT H, 67000 is a Chinese satellite in SSO that was launched on Wed, 10 Dec 2025 UTC via a LIJIAN-1 launch vehicle from the Jiuquan Satellite Launch Center, China (JSC). Unknown objects in Earth's orbit typically refer to objects detected orbiting the Earth but have not yet been identified or cataloged. These objects could be anything from previously untracked satellites, spent rocket stages, debris from satellite collisions, or even natural meteoroids temporarily captured by Earth's gravity.

Loading next visibility...
Identifier
67000, 2025-292H
Orbit
SSO
Country
Flag of CNCN / PRC
Related business
None
Manufacturer
Unknown
Mission
Operational Civil Science
Bus & Motor
Unknown
Mass
Unknown
Launch date (UTC)
2025-12-10 (6 months ago)
Launch vehicle
LIJIAN-1
Launch site
Jiuquan Satellite Launch Center, China (JSC)
Object type
Unknown
Shape & HBR
Box + 4 Pan, 1.1 m
Radar Cross Section
0.116 m², Medium (>0.1 m² and < 1m²)

Expand to show TLE details & history
Last TLE update: 9 hours ago

TLE from 9 hours ago
0 OBJECT H
1 67000U 25292H   26171.45112845  .00003969  00000-0  26413-3 0  9996
2 67000  97.6372 247.5443 0014199 359.7837   0.3382 15.07639841 28824
Epoch: 2026-06-20T10:49Z
TLE epoch observation values (Epoch: 2026-06-20T10:49:37.498Z)
Latitude
-0.00001°
Longitude
176.47249°
Altitude
536.651 km
Speed
7.6 km/s
True Right ascension
16h 30m 10s
True Declination
0° 00' 00"
Sunlit
Object was in full shadow at epoch
Visualization orbit readout
Latitude
Unknown
Longitude
Unknown
Altitude
Unknown
Speed
Unknown
Apparent Right ascension
Unknown
Apparent Declination
Unknown
Sunlit
N/A
Visualization observer readout
Local Sidereal Time
07:15:20
Azimuth
Unknown
Elevation
Unknown
Doppler factor
Unknown
Orbital elements
Apogee altitude
550.23 km
Perigee altitude
530.583 km
Semi-major axis
6,918.544 km
Eccentricity
0.00142
Inclination
97.6372°
RAAN
247.5443°
Arg. of periapsis
359.7837°
True anomaly
0.33916°
Mean anomaly
0.3382°
Eccentric anomaly
0.33868°
Mean motion
3.77156 °/min
Orbital period
95.45 mins
BSTAR
0.00026413
Loading maneuver chart data...
Computing Atmospheric mass density...
Loading historical data...
Loading historical data...
Loading historical data...
Loading historical data...
Loading historical data...
Loading historical data...
Loading historical data...

Documentation

Showing up to 5 results
|